Location: Domont
(49.0278°N, 2.3264°E)
Time: 23:26:04
(UTC+00:00)

Meteor 2-10 Rocket - Pass Details

Date: 16 October 2021
Orbit: 733 x 885 km, 81.2° (Epoch: 27 November)

Event Time Altitude Azimuth Distance (km) Brightness Sun altitude
Rises 19:00:56 0° 171° (S) 3,446 6.7 -20.8°
Reaches altitude 10° 19:03:28 10° 166° (SSE) 2,497 5.9 -21.2°
Enters shadow 19:03:45 11° 165° (SSE) 2,397 5.8 -21.2°
Exits shadow 19:09:19 46° 79° (E) 1,121 3.9 -22.1°
Drops below altitude 10° 19:14:07 10° 22° (NNE) 2,425 6.0 -22.9°
Sets 19:16:32 0° 17° (NNE) 3,337 6.8 -23.3°
